Location: Canyon Rim
(40.8777°N, 111.8641°W)
Time: 07:36:28
(UTC+00:00)

X-37B - Pass Details

Date: 20 April 2021
Orbit: 386 x 389 km, 45.0° (Epoch: 08 May)

Event Time Altitude Azimuth Distance (km) Brightness Sun altitude
Exits shadow 10:38:25 50° 9° (N) 503 1.3 -21.3°
Drops below altitude 10° 10:41:14 10° 64° (ENE) 1,414 4.5 -20.9°
Sets 10:43:21 0° 69° (ENE) 2,269 5.8 -20.5°
